Temp
22 21 19 21 26 26 28 28 30 30 30 29 29 29 30 30 30 29 27 26 26 26 25 24 23 22 22 21 20 20 19 19 18 18 17 17 17 17 16 16 16 15 15 15 15 15 15 15 15
21 21 20 25 27 28 29 30 29 30 29 28 28 29 29 30 29 28 27 27 26 25 25 24 23 22 22 21 20 20 19 19 18 18 17 17 16 16 16 15 15 15 15 15 15 14 14 14 14
20 19 25 28 28 29 30 30 30 29 28 29 29 28 29 30 28 28 27 27 26 25 24 24 23 22 21 21 20 20 19 19 18 17 17 16 16 15 15 14 14 14 14 14 14 13 13 12 12
20 21 24 26 28 29 29 31 30 30 29 28 29 30 28 27 27 26 26 27 26 25 24 24 23 22 22 21 20 20 19 19 18 17 17 16 16 15 14 14 14 13 13 13 13 13 13 13 13
21 25 27 27 28 30 30 29 29 30 29 30 29 30 29 27 26 26 24 25 25 23 24 24 23 22 22 21 20 20 19 18 18 17 17 16 16 15 14 14 14 13 13 13 13 13 13 13 13
24 25 27 28 29 29 29 29 29 29 30 29 29 29 29 27 26 25 24 23 23 23 23 23 23 22 22 21 20 20 19 18 17 17 16 16 16 14 14 14 14 13 13 13 13 13 13 13 13
24 27 27 29 28 28 29 29 29 30 30 29 28 29 29 28 25 25 24 23 23 22 23 24 23 22 21 21 20 19 18 18 17 17 16 16 15 14 14 14 13 13 13 13 13 13 13 13 13
24 27 27 28 28 28 29 28 29 29 30 27 26 29 29 27 25 24 24 24 23 22 21 22 23 22 21 20 20 19 18 17 17 16 16 15 14 14 14 14 13 13 13 13 13 13 12 12 13
23 25 26 28 28 28 28 29 27 26 27 28 27 27 27 26 24 25 25 24 24 23 21 21 20 19 20 19 19 19 18 17 16 16 15 15 13 14 13 12 13 13 13 12 13 13 12 12 12
24 26 27 29 29 29 29 27 28 26 27 27 27 27 26 25 25 25 25 26 24 23 22 21 20 19 18 18 17 18 18 17 15 14 14 13 13 13 13 13 12 12 13 13 13 13 13 12 12
24 25 28 28 28 27 28 27 27 27 27 27 27 27 26 26 25 25 25 26 25 25 23 21 20 21 19 18 17 16 16 16 15 14 14 13 13 13 13 13 12 12 12 11 12 12 12 12 12
24 25 26 26 27 27 27 26 26 26 26 26 26 26 26 26 26 26 27 26 26 25 24 22 19 21 21 18 17 17 17 16 15 14 15 16 13 13 12 13 12 12 12 11 11 12 11 11 12
25 26 25 25 25 25 25 25 26 26 26 25 25 25 25 26 26 26 26 25 25 25 24 22 19 20 21 21 17 17 16 16 15 14 14 15 13 13 12 12 12 11 11 11 11 12 11 11 11
25 26 25 25 25 25 26 26 26 26 25 25 25 26 26 26 26 26 25 25 24 25 23 21 19 19 21 22 19 19 19 16 17 15 14 14 14 12 12 12 12 11 11 11 11 11 11 12 12
24 25 26 25 25 26 25 25 26 26 25 25 26 26 26 26 26 25 25 24 24 23 23 21 20 19 21 21 21 19 18 17 15 15 15 14 14 12 12 12 11 11 11 11 10 10 11 11 12
23 24 24 26 25 25 24 24 28 27 27 27 26 26 26 25 26 25 25 24 24 22 23 22 20 18 20 20 20 19 17 17 15 14 13 14 14 12 12 12 12 12 11 11 10 10 11 12 12
23 23 24 25 27 26 25 25 27 27 27 26 25 25 25 26 25 25 25 24 23 21 22 22 20 16 19 20 19 18 18 16 14 14 13 13 12 12 12 12 12 11 11 11 10 11 11 12 11
22 23 24 24 27 25 25 25 27 27 27 26 26 26 26 26 25 25 24 22 22 23 23 21 18 16 18 17 17 16 15 14 14 14 13 13 12 12 12 12 11 11 11 10 10 11 10 11 10
24 24 24 26 26 26 25 25 27 28 26 25 26 26 26 25 26 25 22 23 22 22 21 18 15 15 15 15 16 15 15 15 14 14 13 12 12 12 12 12 12 11 11 11 10 10 10 10 10
22 23 24 25 26 25 24 24 26 27 27 25 26 26 26 26 25 25 21 19 21 20 18 16 14 15 16 16 15 16 15 15 15 14 13 12 12 12 12 12 11 11 11 10 10 11 10 10 11
22 22 22 23 25 24 23 23 24 25 26 26 26 25 25 26 25 25 19 17 17 17 16 15 14 17 17 15 14 15 14 14 14 14 13 12 12 12 12 12 11 11 10 11 11 11 10 10 11
22 23 22 22 22 21 24 23 24 25 26 26 26 26 26 26 26 23 19 17 16 15 15 15 16 17 17 16 14 14 15 16 15 13 13 12 11 11 12 12 11 10 11 11 11 10 10 11 11
22 23 22 22 22 22 22 22 23 25 25 25 26 26 26 26 24 21 19 17 16 15 15 14 16 16 16 16 14 14 14 14 13 13 12 12 11 12 11 11 11 10 11 11 10 11 10 11 12
23 22 22 22 22 20 22 22 22 24 25 26 27 27 27 24 21 19 18 16 16 16 15 14 15 14 15 15 13 13 13 13 13 13 13 12 12 12 11 11 11 11 11 10 10 11 10 11 12
22 21 20 20 20 20 23 22 23 25 26 26 27 27 24 21 20 18 17 17 16 16 15 15 14 14 13 13 13 13 13 12 12 12 12 12 12 12 11 11 11 11 11 11 10 10 11 11 12
21 22 23 20 21 23 24 22 24 25 26 26 26 26 24 22 20 19 18 17 17 16 15 15 14 14 13 13 13 13 13 13 13 12 12 12 12 12 11 11 11 11 11 11 11 11 11 11 12
21 22 24 24 23 23 25 24 25 25 26 26 26 26 25 22 20 19 18 17 17 16 15 15 15 14 14 13 13 13 12 12 12 12 12 12 12 11 11 11 11 11 11 11 11 12 11 11 12
23 23 22 23 21 21 24 24 24 26 26 27 27 27 24 21 20 19 18 17 17 16 15 15 15 14 14 13 13 13 12 12 12 11 11 11 11 11 11 11 11 11 12 11 12 11 11 11 12
23 22 23 24 24 22 23 24 25 26 27 27 28 27 22 20 20 19 18 17 17 16 16 15 15 14 14 14 13 13 13 12 12 12 12 11 11 11 11 11 11 11 12 12 12 12 11 12 12
23 23 22 22 21 23 24 24 26 26 27 28 27 24 22 21 20 19 19 18 17 16 16 15 15 15 14 14 14 13 13 12 12 12 12 11 11 12 12 12 11 12 12 12 12 11 11 11 12
Height
1532 1534 1537 1539 1535 1529 1520 1513 1505 1506 1508 1510 1511 1509 1506 1505 1506 1512 1508 1509 1510 1512 1513 1514 1516 1518 1520 1521 1523 1523 1524 1525 1525 1526 1526 1526 1525 1525 1525 1525 1526 1526 1526 1525 1525 1526 1526 1526 1526
1532 1535 1538 1533 1527 1520 1508 1504 1508 1503 1507 1509 1509 1509 1508 1505 1506 1508 1508 1508 1509 1510 1512 1512 1514 1516 1518 1520 1521 1522 1523 1524 1524 1525 1525 1525 1524 1524 1523 1523 1524 1525 1525 1524 1524 1524 1524 1524 1524
1534 1536 1533 1521 1513 1511 1498 1501 1500 1507 1508 1508 1505 1507 1505 1504 1506 1507 1507 1506 1507 1508 1509 1511 1513 1515 1518 1519 1521 1522 1523 1524 1523 1523 1523 1523 1523 1522 1521 1522 1521 1522 1522 1522 1522 1523 1523 1523 1522
1535 1538 1532 1523 1510 1502 1501 1497 1502 1504 1506 1507 1505 1503 1505 1505 1506 1507 1505 1505 1506 1506 1507 1509 1510 1513 1515 1517 1518 1520 1520 1521 1521 1521 1521 1520 1520 1520 1520 1520 1519 1520 1520 1520 1520 1521 1521 1521 1521
1534 1528 1520 1515 1506 1501 1501 1501 1503 1502 1502 1502 1504 1500 1502 1504 1504 1504 1505 1505 1505 1506 1506 1507 1508 1510 1513 1515 1516 1517 1519 1520 1520 1520 1519 1518 1518 1517 1517 1517 1518 1517 1517 1517 1518 1518 1518 1519 1520
1529 1523 1517 1510 1499 1499 1502 1501 1501 1501 1499 1502 1503 1502 1501 1503 1504 1505 1504 1505 1506 1506 1505 1506 1506 1508 1509 1512 1513 1515 1516 1517 1517 1518 1517 1517 1516 1515 1515 1515 1515 1515 1514 1514 1514 1515 1515 1516 1517
1523 1517 1510 1502 1502 1503 1499 1499 1498 1497 1498 1500 1503 1501 1501 1502 1503 1502 1503 1503 1503 1504 1503 1504 1504 1505 1507 1509 1511 1513 1514 1515 1515 1515 1514 1514 1514 1513 1513 1512 1511 1511 1510 1510 1510 1510 1511 1512 1513
1520 1515 1510 1501 1504 1502 1497 1499 1498 1497 1495 1503 1503 1498 1498 1500 1501 1501 1501 1502 1501 1500 1500 1500 1501 1502 1504 1505 1507 1510 1512 1513 1513 1513 1512 1511 1511 1510 1509 1509 1508 1507 1507 1506 1506 1506 1507 1508 1508
1518 1514 1507 1499 1498 1496 1499 1497 1501 1502 1501 1499 1500 1500 1501 1501 1499 1499 1498 1498 1498 1498 1497 1498 1499 1501 1500 1501 1503 1506 1508 1510 1510 1510 1509 1509 1509 1510 1508 1507 1505 1504 1502 1501 1501 1501 1501 1503 1504
1512 1502 1498 1494 1492 1493 1493 1498 1497 1501 1500 1498 1496 1495 1497 1498 1497 1496 1495 1494 1494 1494 1495 1494 1494 1496 1498 1500 1500 1502 1505 1506 1507 1507 1508 1507 1507 1507 1505 1503 1500 1500 1499 1498 1497 1497 1497 1499 1502
1501 1492 1492 1491 1492 1494 1493 1494 1493 1494 1494 1494 1492 1493 1494 1494 1492 1491 1489 1487 1487 1489 1489 1489 1487 1489 1492 1497 1497 1500 1503 1504 1504 1504 1504 1503 1503 1503 1502 1501 1500 1497 1496 1496 1497 1496 1496 1498 1499
1495 1488 1491 1492 1489 1492 1492 1491 1489 1488 1490 1490 1491 1491 1488 1486 1486 1483 1481 1480 1480 1481 1481 1483 1482 1482 1485 1491 1493 1497 1499 1500 1500 1500 1498 1498 1499 1498 1497 1497 1496 1495 1495 1494 1494 1494 1494 1494 1495
1485 1488 1489 1489 1491 1491 1491 1486 1483 1481 1485 1485 1487 1485 1483 1481 1478 1476 1474 1473 1473 1471 1474 1475 1475 1475 1478 1483 1488 1492 1493 1494 1496 1495 1495 1495 1496 1495 1495 1493 1492 1491 1492 1491 1491 1491 1491 1490 1491
1480 1481 1483 1486 1484 1483 1483 1478 1479 1477 1480 1479 1480 1478 1475 1474 1471 1468 1467 1466 1466 1464 1465 1468 1467 1469 1471 1475 1480 1485 1488 1490 1490 1491 1491 1490 1491 1491 1491 1490 1488 1488 1488 1487 1487 1487 1488 1488 1489
1478 1477 1475 1478 1480 1476 1479 1469 1469 1471 1473 1472 1471 1471 1469 1467 1464 1462 1461 1460 1459 1458 1457 1458 1458 1461 1464 1468 1473 1480 1484 1486 1487 1486 1486 1486 1486 1486 1485 1485 1485 1484 1482 1482 1482 1483 1484 1485 1486
1476 1474 1471 1467 1472 1475 1479 1456 1457 1462 1464 1462 1464 1464 1462 1460 1457 1455 1453 1452 1452 1450 1449 1448 1451 1454 1457 1461 1467 1473 1478 1481 1483 1481 1482 1481 1481 1480 1480 1479 1479 1478 1478 1478 1479 1479 1481 1482 1483
1464 1460 1458 1464 1461 1465 1468 1448 1452 1456 1456 1458 1459 1458 1455 1451 1448 1447 1447 1445 1444 1442 1441 1441 1445 1449 1452 1458 1460 1467 1471 1476 1478 1477 1479 1478 1477 1476 1475 1475 1475 1474 1474 1475 1475 1477 1478 1478 1478
1455 1455 1457 1453 1450 1458 1459 1443 1449 1449 1450 1452 1450 1450 1446 1443 1440 1440 1439 1436 1435 1433 1433 1437 1442 1446 1450 1454 1459 1466 1469 1473 1474 1474 1475 1474 1473 1472 1471 1470 1470 1470 1470 1471 1472 1473 1474 1474 1475
1446 1442 1443 1441 1447 1448 1449 1444 1439 1441 1443 1447 1443 1441 1439 1436 1433 1433 1430 1427 1426 1426 1428 1432 1438 1442 1447 1452 1458 1463 1467 1471 1471 1471 1470 1469 1469 1467 1466 1466 1466 1466 1466 1467 1468 1469 1469 1470 1471
1445 1445 1440 1438 1440 1446 1447 1442 1435 1434 1436 1438 1435 1432 1431 1429 1428 1428 1425 1422 1422 1423 1425 1429 1434 1439 1446 1452 1458 1463 1466 1468 1468 1468 1467 1465 1464 1463 1462 1462 1462 1462 1462 1463 1465 1465 1467 1468 1468
1434 1439 1444 1444 1440 1442 1447 1442 1436 1433 1429 1425 1424 1424 1424 1423 1422 1423 1422 1419 1420 1421 1423 1428 1433 1439 1446 1451 1455 1458 1461 1463 1464 1464 1464 1462 1461 1460 1459 1458 1458 1458 1460 1462 1462 1462 1464 1464 1465
1426 1435 1443 1445 1450 1447 1441 1431 1426 1421 1415 1414 1414 1416 1414 1414 1416 1418 1418 1417 1420 1420 1423 1428 1433 1439 1445 1450 1455 1457 1461 1462 1462 1461 1461 1460 1458 1456 1455 1455 1456 1458 1458 1458 1459 1460 1461 1462 1464
1416 1427 1437 1440 1443 1442 1440 1438 1419 1413 1410 1406 1406 1406 1405 1408 1412 1413 1414 1416 1418 1420 1424 1428 1434 1440 1444 1449 1454 1456 1458 1459 1459 1459 1457 1456 1455 1453 1453 1454 1455 1456 1455 1456 1457 1459 1459 1461 1463
1420 1428 1434 1433 1436 1437 1432 1433 1421 1406 1399 1395 1396 1395 1396 1406 1408 1410 1412 1415 1417 1422 1426 1431 1435 1440 1445 1449 1452 1455 1456 1456 1457 1457 1456 1454 1451 1451 1453 1454 1453 1454 1454 1455 1456 1458 1460 1460 1462
1414 1425 1434 1439 1434 1427 1415 1419 1403 1389 1386 1389 1389 1390 1397 1403 1405 1407 1410 1413 1418 1422 1427 1432 1437 1441 1445 1449 1452 1453 1454 1454 1454 1454 1453 1450 1449 1450 1451 1452 1453 1453 1453 1455 1457 1458 1461 1461 1462
1398 1403 1400 1423 1417 1409 1401 1411 1391 1379 1381 1382 1385 1389 1395 1400 1404 1406 1409 1414 1418 1424 1428 1433 1438 1442 1446 1449 1452 1452 1452 1454 1454 1452 1451 1450 1448 1450 1452 1452 1452 1453 1454 1456 1457 1459 1460 1461 1462
1389 1392 1384 1391 1393 1398 1387 1392 1380 1374 1375 1374 1377 1384 1390 1397 1402 1405 1409 1414 1419 1424 1429 1433 1439 1443 1446 1449 1450 1451 1451 1451 1452 1450 1448 1449 1449 1452 1452 1453 1453 1454 1454 1456 1457 1458 1460 1461 1462
1374 1383 1396 1389 1409 1413 1386 1389 1382 1368 1367 1368 1371 1377 1386 1395 1401 1405 1410 1415 1420 1425 1430 1434 1439 1443 1446 1448 1449 1450 1450 1451 1450 1449 1449 1449 1450 1453 1453 1454 1454 1455 1456 1457 1458 1458 1459 1460 1461
1368 1374 1376 1378 1380 1395 1397 1384 1369 1369 1362 1365 1367 1374 1385 1393 1398 1403 1409 1416 1420 1425 1430 1434 1439 1443 1445 1447 1448 1449 1450 1449 1449 1449 1449 1449 1451 1453 1455 1455 1456 1456 1457 1458 1458 1458 1459 1460 1462
1359 1364 1373 1378 1391 1382 1378 1379 1362 1363 1361 1364 1369 1377 1384 1390 1396 1403 1409 1414 1419 1425 1430 1435 1439 1442 1444 1446 1447 1448 1449 1449 1448 1448 1449 1450 1452 1454 1455 1457 1457 1457 1457 1458 1458 1459 1460 1461 1463
Wind_Speed
14 16 9 4 6 4 11 6 3 7 7 2 3 6 5 7 8 6 2 8 11 14 12 11 15 15 14 13 10 11 9 6 5 5 6 7 8 9 10 10 10 11 11 13 12 12 12 10 11
16 15 6 4 7 9 9 6 10 3 2 7 10 12 9 9 7 7 4 10 11 13 12 12 14 15 16 13 12 10 10 6 5 6 7 8 9 10 11 10 10 10 11 12 14 14 12 11 10
15 9 8 5 8 10 3 10 6 2 2 3 5 6 2 2 3 4 6 11 13 14 12 13 15 16 16 14 12 11 10 7 5 6 7 9 10 11 11 11 12 13 12 12 12 13 12 11 12
10 6 7 9 12 9 9 8 3 5 5 3 4 6 4 4 2 3 6 12 15 15 14 13 16 17 17 15 13 12 11 8 7 7 8 10 10 11 11 13 14 16 16 14 14 13 13 13 14
9 8 10 12 14 10 8 10 7 8 3 4 3 4 4 3 5 8 6 14 15 16 17 15 18 19 18 18 16 15 13 12 11 10 10 11 11 10 12 15 17 17 18 18 18 17 19 18 16
12 8 10 13 15 8 10 13 12 12 7 3 5 4 2 4 8 6 6 12 15 16 19 18 19 20 20 20 20 20 19 17 14 13 12 12 12 11 15 18 18 19 22 22 22 21 20 20 19
15 9 14 15 12 11 13 9 13 16 12 7 4 7 5 2 10 10 8 10 16 18 21 19 20 22 22 22 25 24 21 19 17 16 14 14 14 14 17 19 20 20 19 20 21 22 23 22 22
14 10 18 13 14 12 2 10 5 8 7 1 3 6 7 11 11 10 9 10 16 21 21 23 23 23 23 26 28 26 23 21 19 18 17 16 16 17 18 19 19 19 19 20 20 22 23 24 24
14 11 14 19 14 11 5 8 2 3 11 12 10 13 15 15 12 13 13 13 17 22 23 23 21 22 24 24 24 27 25 22 22 21 19 18 15 14 15 17 20 22 22 21 20 19 19 21 25
18 15 23 21 13 15 9 10 9 10 17 21 20 20 13 13 17 17 17 18 18 22 24 25 25 24 22 21 21 23 24 22 20 16 15 15 14 15 16 18 23 21 22 20 20 19 17 14 13
22 24 23 26 26 23 21 23 23 18 18 26 25 24 22 23 22 22 22 20 19 20 24 26 31 31 26 21 19 18 18 16 16 17 16 15 14 14 14 14 14 14 16 13 13 13 13 13 16
29 29 28 32 32 24 20 29 27 27 25 31 29 27 30 28 25 25 25 25 23 21 23 27 29 34 32 22 21 19 18 16 15 14 17 17 15 14 14 13 14 14 13 15 12 12 12 13 16
31 25 31 29 31 30 29 31 32 34 29 32 27 27 25 25 28 31 29 27 25 23 21 27 30 33 34 32 21 21 20 18 16 15 15 17 15 14 14 14 14 15 15 14 13 13 13 12 12
32 34 35 35 34 32 28 29 33 34 31 34 27 28 27 26 30 29 28 28 25 22 19 24 31 32 34 33 30 27 26 19 20 13 13 18 16 14 15 15 14 15 16 15 13 13 12 13 13
32 27 27 25 31 28 32 27 28 33 28 32 28 24 26 28 30 28 26 26 24 22 21 26 30 31 34 32 31 28 24 23 14 12 17 17 18 16 18 16 16 16 18 19 17 14 12 12 14
20 24 25 26 23 24 18 30 24 23 24 24 21 24 28 29 30 28 24 25 25 23 23 26 24 28 34 34 30 28 22 20 14 13 13 16 18 18 19 19 19 18 17 20 16 13 13 13 13
25 26 32 26 25 24 25 35 25 30 23 19 22 26 29 33 32 28 23 21 22 22 23 25 21 26 32 31 31 27 24 18 13 13 12 14 15 17 19 20 17 18 18 18 16 13 14 13 16
28 25 26 28 21 17 27 33 23 27 25 25 25 27 30 31 31 27 22 21 24 22 20 17 19 25 29 27 25 20 15 14 12 11 12 13 14 17 19 19 18 17 17 16 14 13 13 13 12
26 26 31 26 25 24 26 30 27 27 19 27 31 30 31 32 33 22 20 19 16 15 13 15 21 26 26 22 20 15 13 12 10 11 12 13 14 17 18 19 17 17 16 16 13 14 14 14 14
29 28 30 24 19 22 23 29 27 22 25 28 33 30 32 29 26 18 16 10 10 9 12 17 21 24 24 20 15 12 11 10 9 9 12 11 12 14 16 15 16 15 16 17 16 15 13 14 14
31 31 24 26 19 18 22 28 28 27 33 35 31 27 28 27 25 18 11 7 8 11 14 18 21 24 23 17 15 12 9 8 7 8 7 7 8 10 12 13 13 12 12 15 15 15 13 13 13
32 24 24 24 20 23 21 24 27 25 27 22 29 30 32 25 20 13 10 10 12 13 17 19 23 26 22 17 11 10 8 7 8 7 8 7 8 10 9 8 9 10 13 13 12 9 10 12 11
30 18 22 23 21 23 27 19 21 19 23 25 25 27 22 18 13 13 12 12 15 18 21 23 25 22 18 16 10 7 6 6 5 5 7 8 8 7 5 7 9 11 10 9 8 9 11 11 10
22 18 21 18 16 20 21 21 21 23 26 24 21 21 18 10 9 13 14 17 20 22 22 22 22 18 15 12 10 7 5 5 4 6 8 8 10 6 7 7 8 7 6 7 7 8 9 7 8
23 22 10 13 13 15 17 15 23 21 19 22 16 12 12 10 13 17 20 22 24 24 23 20 18 15 14 11 9 6 4 4 3 5 6 7 5 6 7 7 7 6 5 6 7 9 8 7 6
30 27 14 18 14 13 19 11 14 11 18 28 25 12 11 12 15 19 22 25 25 24 22 19 17 15 13 11 9 6 4 2 2 3 3 2 5 8 8 7 6 5 5 7 8 8 8 7 6
28 27 25 8 4 8 9 14 13 18 15 13 13 20 14 12 17 21 24 24 25 23 21 18 16 14 13 11 8 6 4 1 2 1 2 2 6 8 7 7 7 6 6 6 7 7 8 7 7
28 24 22 13 15 12 8 12 7 3 6 10 12 14 14 16 20 23 24 25 23 21 19 17 14 13 13 11 8 5 3 1 2 2 4 5 8 9 7 6 5 6 6 5 5 6 8 7 7
18 23 21 17 12 13 6 6 7 13 7 11 12 16 19 21 23 25 25 24 22 20 19 16 15 14 13 10 8 6 4 1 2 2 4 6 8 9 7 6 4 5 5 4 4 7 6 4 8
24 21 26 14 20 10 7 2 4 4 3 8 6 13 20 22 24 26 26 25 23 21 19 17 16 14 12 10 8 5 4 2 2 3 6 8 8 9 9 7 4 4 4 4 5 5 5 7 9
Wind_Direction
152 149 158 184 225 237 241 193 1 166 185 162 252 233 256 306 308 337 301 191 171 181 185 173 192 198 202 203 203 205 215 229 262 283 287 286 284 276 267 259 253 258 271 276 269 264 264 250 248
157 153 173 224 248 222 195 186 195 180 338 276 247 245 245 263 273 275 249 210 182 182 181 181 185 192 200 201 202 206 218 234 273 291 300 298 293 284 273 262 245 255 268 271 276 270 264 267 257
160 176 236 231 238 247 241 181 134 183 256 243 220 244 241 253 258 269 253 210 200 188 185 186 188 190 199 201 205 212 220 239 269 286 302 305 294 286 274 273 260 273 281 276 269 266 269 270 270
167 200 236 247 240 238 264 170 153 241 177 240 278 241 214 275 312 268 240 220 209 196 192 195 194 193 198 200 204 207 215 231 258 285 300 305 296 282 265 273 274 276 275 275 275 264 260 261 262
193 235 249 238 250 253 231 261 276 257 223 240 244 256 269 21 331 292 253 217 213 199 199 206 202 200 205 208 211 216 223 234 249 266 286 302 300 283 273 275 272 273 270 270 265 261 253 254 254
219 256 238 240 244 230 250 248 250 244 233 204 213 274 282 28 13 338 279 230 218 208 210 211 211 207 212 217 221 226 229 234 247 257 273 292 299 284 274 272 269 270 271 267 264 259 256 248 251
236 229 249 260 272 264 257 254 241 239 213 203 324 266 279 334 351 346 314 250 227 219 218 220 220 214 217 223 229 233 236 239 248 258 268 281 289 276 271 275 278 275 273 275 267 255 256 248 256
235 253 259 247 257 270 246 234 259 235 234 237 281 261 275 339 319 324 307 274 243 226 223 222 224 221 221 224 228 234 240 243 250 262 268 275 282 276 273 274 284 277 279 282 272 257 250 251 253
224 239 247 250 249 246 188 236 211 269 271 272 264 269 287 295 300 304 302 279 258 238 229 221 222 218 221 222 229 232 237 242 250 258 263 269 266 266 273 274 268 275 284 283 276 265 257 251 248
216 230 244 249 263 270 241 246 278 278 274 276 273 271 276 274 290 289 285 281 272 250 238 225 221 218 216 213 214 232 233 239 244 247 254 265 258 259 258 262 276 277 279 275 277 272 259 249 248
228 241 249 248 256 260 280 271 272 264 271 272 283 298 288 283 281 281 277 273 268 265 245 233 230 226 218 215 213 217 221 228 235 242 252 263 257 262 269 276 280 287 287 281 280 278 274 254 252
246 244 244 263 262 261 260 273 279 267 270 274 285 286 289 288 285 282 277 272 270 269 249 232 226 227 225 212 217 218 217 224 234 247 267 267 262 262 265 263 268 269 269 265 268 264 259 250 249
243 251 252 252 262 265 268 268 270 276 280 277 282 286 281 283 284 284 278 271 267 266 252 229 225 230 226 224 216 216 220 231 237 249 262 262 253 255 258 262 259 259 257 254 256 260 260 259 255
247 247 250 257 256 261 260 265 270 271 277 278 278 282 283 286 287 286 277 268 266 270 255 228 226 229 224 227 224 230 234 231 245 244 247 262 256 255 254 258 262 259 253 251 247 253 251 259 253
257 254 257 247 252 252 261 265 261 267 268 271 277 280 284 289 294 286 278 269 267 269 263 237 235 226 224 224 227 228 233 235 234 239 256 260 262 257 255 256 259 259 259 253 244 249 254 252 252
249 243 249 232 232 245 239 260 260 268 266 271 270 280 288 290 292 285 276 266 269 265 259 248 236 221 221 217 220 222 224 235 231 241 247 263 267 263 260 259 264 270 266 257 239 238 242 244 244
231 237 236 245 242 238 233 256 252 259 256 260 273 281 287 295 293 282 279 274 271 265 253 251 230 211 213 215 215 213 224 228 232 245 249 258 260 257 261 261 263 257 263 247 235 233 235 246 239
229 232 243 258 240 224 241 249 254 258 258 273 277 281 289 294 290 286 284 276 270 257 249 233 213 205 203 203 202 205 214 222 233 241 252 258 263 258 260 260 254 266 255 238 234 233 237 240 232
246 243 246 245 244 242 236 253 260 258 267 270 277 286 285 289 292 286 281 275 259 240 222 203 194 194 186 186 190 198 211 224 233 243 256 262 265 265 259 252 259 260 242 243 237 234 240 238 219
236 242 247 255 247 242 253 265 274 269 262 271 276 278 282 284 287 285 271 260 236 208 187 183 183 186 184 185 181 193 205 223 230 244 254 260 258 258 247 254 257 253 235 232 233 236 233 230 210
227 232 239 249 252 249 259 266 267 265 259 257 268 266 271 274 279 274 244 211 186 179 177 172 173 177 179 177 187 199 207 224 248 262 265 255 257 258 258 257 256 243 217 229 234 237 228 221 207
231 222 241 250 252 253 245 268 266 270 268 262 264 269 266 268 264 244 210 181 175 162 159 162 167 176 183 185 182 185 206 230 236 236 242 248 250 260 261 254 227 206 222 231 234 227 216 205 196
233 224 230 241 251 266 256 260 271 268 267 266 265 255 253 251 247 212 188 172 157 150 150 155 163 171 182 182 173 183 206 230 230 239 247 254 253 258 235 207 197 213 223 221 196 200 187 211 190
220 217 224 234 243 249 251 253 266 263 264 267 260 256 227 208 197 172 160 151 145 146 147 154 164 168 174 175 178 180 200 208 229 256 263 263 266 233 192 196 204 211 200 197 182 188 199 201 197
188 193 198 220 224 253 242 243 252 261 256 253 254 240 163 178 163 155 152 149 149 149 152 156 159 160 167 171 172 182 193 199 251 266 284 289 228 189 191 182 189 181 182 166 178 186 200 209 211
192 189 207 215 229 244 206 240 243 252 255 249 247 225 167 167 160 157 153 152 151 153 155 156 158 161 169 170 175 175 170 224 276 283 271 248 190 147 173 167 168 173 171 167 178 186 197 201 186
192 213 213 244 268 259 176 239 263 258 249 246 232 208 186 164 161 155 152 152 154 156 157 156 160 166 168 171 174 168 167 196 228 193 99 133 143 168 160 161 143 143 147 157 174 184 192 195 182
196 195 203 211 225 218 228 251 245 303 210 214 187 187 176 167 161 156 155 155 156 156 156 155 160 165 167 170 167 167 177 166 174 141 136 145 160 162 162 157 141 140 149 157 159 182 183 173 179
188 198 209 213 232 204 237 229 202 249 214 197 199 181 168 167 160 158 158 159 156 157 157 157 163 166 167 166 168 171 156 151 170 177 156 146 157 165 161 160 152 154 153 170 182 168 172 192 170
198 201 198 197 195 237 237 205 299 228 133 206 118 155 159 159 158 159 161 159 159 159 161 165 167 168 169 165 167 176 150 156 191 138 141 153 163 164 168 163 142 156 170 192 187 166 158 158 171